Weather in Andriivka

Ukraine / Zaporizhia Region     47°06′09″N   36°35′03″E
temp.,
°C
wind,
m/s
gust,
m/s
humid.,
%
clouds,
%
prec.,
mm/h
press.,
hPa
HPBL,
m
18 may, tue
tue1800:00+14ssw239495 0.0 100849
03:00+14sw2593100 0.0 1007150
06:00+14ssw379299 0.0 1008435
09:00+18ssw567151 0.1 1008943
12:00+19ssw78625 0.4 10071191
15:00+20ssw910601 0.4 10071236
18:00+17ssw71077100 0.1 1007760
21:00+14s51192100 0.1 1007357
19 may, wed
wed1900:00+13s369793 0.3 1006137
03:00+14s3791100 0.6 1006259
06:00+13sse3889100 0.3 1006284
09:00+15ssw687596 0.9 1006842
12:00+18ssw8106099 0.8 10071413
15:00+18ssw9115947 1.0 10071581
18:00+14sw8128871 0.9 1007856
21:00+14sw7139059 1.5 1008609
20 may, thu
thu2000:00+12wsw7139157 0.3 1009549
03:00+12wsw715921 0.3 1010580
06:00+11wsw412934 0.0 1011404
09:00+17sw57650 0.0 1012929
12:00+21sw57518 0.0 10121649
15:00+21ssw5447100 0.0 10121236
18:00+19sse455427 0.0 1012531
21:00+14e4672100 0.0 101287
21 may, fri
fri2100:00+14e4117893 0.0 1011219
03:00+13ene41291100 0.0 1010219
06:00+15e61283100 0.0 1010328
09:00+19ese6870100 0.3 1009488
12:00+21ese3460100 0.4 1009625
15:00+25e3349100 0.4 1008933
18:00+24e2357100 0.0 1008757
21:00+20nne2275100 0.0 100815
22 may, sat
sat2200:00+18nne339052 0.0 100744
03:00+17n34925 0.0 100750
06:00+18nne48908 0.0 1008179
09:00+24ne67665 0.0 1007598
12:00+27ene4457100 0.0 10081153
15:00+28e4451100 0.0 10081630
18:00+27ne465840 0.0 1008710
21:00+19se228714 0.0 101031